Providence, RI

7:47 AM EST on January 18, 2018 (GMT -0500)
Green State

Weather History for KPVD - July, 2013

Change the Weather History Date:

Sunday, July 21, 2013

  Actual Average Record
Temperature  
Mean Temperature 76 °F 74 °F  
Max Temperature 83 °F 83 °F 102 °F (1991)
Min Temperature 69 °F 65 °F 51 °F (1966)
Degree Days  
Heating Degree Days 0 0  
Month to date heating degree days 0 0  
Since 1 June heating degree days 24 43  
Since 1 July heating degree days 0 0  
Cooling Degree Days 11 9  
Month to date cooling degree days 329 177  
Year to date cooling degree days 537 335  
Since 1 June cooling degree days 493 309  
Growing Degree Days 26 (Base 50)    
Moisture  
Dew Point 65 °F    
Average Humidity 71    
Maximum Humidity 90    
Minimum Humidity 51    
Precipitation  
Precipitation 0.12 in 0.11 in 1.47 in (1956)
Month to date precipitation 1.03 2.11  
Year to date precipitation 25.71 25.82  
Snow  
Snow 0.00 in 0.00 in 0.00 in (2002)
Month to date snowfall 0.0 0.0  
Since 1 June snowfall 0.0 0.0  
Since 1 July snowfall 0.0 0.0  
Snow Depth 0.00 in    
Sea Level Pressure  
Sea Level Pressure 29.93 in    
Wind  
Wind Speed 5 mph (South)    
Max Wind Speed 10 mph    
Max Gust Speed 15 mph    
Visibility 10 miles    
Events Rain    
T = Trace of Precipitation, MM = Missing Value Source: NWS Daily Summary

Daily Weather History Graph

Daily Weather History Graph

Search for Another Location

Airport or City:

Trip Planner

Search our weather history database for the weather conditions in past years. The results will help you decide how hot, cold, wet, or windy it might be!

Date:

Astronomy

Jul. 21, 2013 Rise Set
Actual Time 5:29 AM EDT 8:14 PM EDT
Civil Twilight 4:57 AM EDT 8:46 PM EDT
Nautical Twilight 4:16 AM EDT 9:27 PM EDT
Astronomical Twilight 3:29 AM EDT 10:13 PM EDT
Moon 7:08 PM EDT (7/21) 4:12 AM EDT (7/21)
Length of Visible Light 15h 49m
Length of Day
14h 44m
Waxing Gibbous, 98% of the Moon is Illuminated
Jul 21
Waxing Gibbous
Jul 22
Full
Jul 29
Last Quarter
Aug 6
New
Aug 14
First Quarter

Hourly Weather History & Observations

Time (EDT) Temp. Heat Index Dew Point Humidity Pressure Visibility Wind Dir Wind Speed Gust Speed Precip Events Conditions
12:51 AM 75.0 °F - 69.1 °F 82% 29.83 in 10.0 mi West 5.8 mph - N/A   Clear
1:51 AM 75.0 °F - 64.0 °F 69% 29.84 in 10.0 mi NW 4.6 mph - N/A   Clear
2:51 AM 73.0 °F - 61.0 °F 66% 29.85 in 10.0 mi WNW 8.1 mph - N/A   Partly Cloudy
3:51 AM 73.0 °F - 61.0 °F 66% 29.85 in 10.0 mi NNW 6.9 mph - N/A   Overcast
4:51 AM 71.1 °F - 62.1 °F 73% 29.87 in 10.0 mi SW 3.5 mph - 0.00 in   Partly Cloudy
5:51 AM 71.1 °F - 63.0 °F 75% 29.88 in 10.0 mi WNW 3.5 mph - N/A   Mostly Cloudy
6:51 AM 70.0 °F - 64.9 °F 84% 29.91 in 7.0 mi North 4.6 mph - 0.07 in Rain Light Rain
7:51 AM 72.0 °F - 66.9 °F 84% 29.91 in 10.0 mi NNW 3.5 mph - 0.00 in   Mostly Cloudy
8:51 AM 71.1 °F - 66.9 °F 87% 29.95 in 7.0 mi Calm Calm - 0.03 in Rain Light Rain
9:51 AM 75.0 °F - 66.0 °F 73% 29.93 in 10.0 mi North 6.9 mph - 0.02 in   Mostly Cloudy
10:51 AM 78.1 °F - 66.0 °F 66% 29.95 in 10.0 mi East 4.6 mph - N/A   Mostly Cloudy
11:51 AM 78.1 °F - 64.9 °F 64% 29.96 in 10.0 mi SE 4.6 mph - N/A   Overcast
12:51 PM 78.1 °F - 64.0 °F 62% 29.96 in 10.0 mi SSE 4.6 mph - N/A   Mostly Cloudy
1:51 PM 80.1 °F 81.9 °F 64.9 °F 60% 29.96 in 10.0 mi SE 5.8 mph - N/A   Mostly Cloudy
2:51 PM 80.1 °F 81.5 °F 63.0 °F 56% 29.96 in 10.0 mi SE 3.5 mph - N/A   Mostly Cloudy
3:51 PM 82.0 °F 83.1 °F 63.0 °F 52% 29.95 in 10.0 mi SSE 6.9 mph - N/A   Scattered Clouds
4:51 PM 82.9 °F 84.4 °F 64.0 °F 53% 29.94 in 10.0 mi SSE 9.2 mph - N/A   Scattered Clouds
5:51 PM 81.0 °F 83.0 °F 66.0 °F 60% 29.94 in 10.0 mi SSE 8.1 mph - N/A   Scattered Clouds
6:51 PM 79.0 °F - 66.0 °F 64% 29.94 in 10.0 mi SSE 8.1 mph - N/A   Scattered Clouds
7:51 PM 75.9 °F - 64.9 °F 69% 29.95 in 10.0 mi South 5.8 mph - N/A   Mostly Cloudy
8:51 PM 73.9 °F - 66.0 °F 76% 29.96 in 10.0 mi South 4.6 mph - N/A   Mostly Cloudy
9:51 PM 73.0 °F - 68.0 °F 84% 29.99 in 10.0 mi South 4.6 mph - N/A   Mostly Cloudy
10:51 PM 71.1 °F - 66.9 °F 87% 29.99 in 10.0 mi South 3.5 mph - N/A   Mostly Cloudy
11:51 PM 71.1 °F - 68.0 °F 90% 29.99 in 10.0 mi South 3.5 mph - N/A   Mostly Cloudy